[[{"header":{"parameterUnit":"m.s-1","parameterCategory":1,"la1":30.2991,"la2":30.254,"lo1":-89.0895,"lo2":-89.0444,"dy":0.0017,"dx":0.0017,"nx":28,"ny":28,"refTime":"2024-07-25T03:00:00:Z","depth":0,"parameterNumber":2,"parameterNumberName":"U-component_of_WINDS"},"data":[0,0,0,0,0,0,0,0,0,0,0,0,0,0,0,0,0,0,0,0,0,0,0,0,0,0,0,0,0,0,0,0,0,0,0,0,0,0,0,0,0,0,0,0,0,0,0,0,0,0,0,0,0,0,0,0,0,0,0.0846,0.0844,0,0.0603,0.06,0.0597,0.0411,0.0409,0.0407,0.0406,0.016,0.0155,0.015,0,0,0,0,0,0,0,0,0,0,0,0,0,0.1153,0.1148,0.0846,0.0843,0.084,0.0603,0.06,0.0597,0.0411,0.0409,0.0407,0.0405,0.0162,0.0156,0.015,0,0,0,0,0,0,0,0,0,0,0,0,0,0.0976,0.1147,0.0847,0.0719,0.0705,0.0604,0.06,0.0596,0.0412,0.0409,0.0406,0.0404,0.0163,0.0156,0.0149,0.0156,0,0,0.0127,0.0123,0,0,0,0,0,0,0,0,0.0986,0.0965,0.0741,0.0728,0.0712,0.0534,0.0618,0.0448,0.0412,0.0523,0.0406,0.0403,0.0287,0.0269,0.0229,0.0145,0.0134,0.0126,0.0121,0.0118,0.0116,0,0,0,0,0,0,0,0.0999,0.0975,0.075,0.0738,0.072,0.0675,0.0647,0.0585,0.0423,0.0513,0.0499,0.0473,0.0278,0.0237,0.0222,0.0131,0.0126,0.012,0.0115,0.0112,0.0038,0.0041,0,0,0,0,0,0,0.1031,0.0986,0.0758,0.0743,0.0845,0.0671,0.064,0.0594,0.0423,0.0394,0.0475,0.0465,0.0251,0.0231,0.0213,0.021,0.0118,0.0111,0.0107,0.0036,0.0039,0.0042,0,0,0,0,0,0,0.1038,0.1012,0.0768,0.086,0.0826,0.0669,0.0619,0.0591,0.0549,0.0394,0.0365,0.0463,0.0248,0.0223,0.0171,0.0199,0.0108,0.0101,0.0033,0.0037,0.004,0.0205,0,0,0,0,0,0,0.1048,0.1016,0.1017,0.0862,0.0821,0.073,0.0621,0.0588,0.0536,0.0521,0.0374,0.0348,0.0244,0.0183,0.0164,0.0187,0.0096,0.003,0.0035,0.0039,0.0196,0.0214,0.0228,0,0,0,0,0,0.1059,0.1073,0.1018,0.0991,0.0819,0.0732,0.0709,0.0589,0.0539,0.0539,0.0439,0.0352,0.0199,0.018,0.0156,0.0178,0.0028,0.0033,0.0039,0.0189,0.021,0.0228,0,0,0,0,0,0,0.1238,0.1051,0.0987,0.0951,0.0859,0.0701,0.0697,0.0615,0.0535,0.0524,0.0379,0.0347,0.0311,0.0238,0.0221,0.0175,0.0102,0.0103,0.0224,0.0243,0.0259,0.0278,0.0089,0,0,0,0,0,0.1272,0.1216,0.1056,0.1041,0.0997,0.0856,0.0813,0.0728,0.0627,0.0587,0.0483,0.039,0.0319,0.0277,0.0204,0.0184,0.015,0.0187,0.0203,0.0217,0.0221,0.0204,0.0219,0.006,0.006,0.006,0,0,0.1345,0.1236,0.121,0.1074,0.0992,0.0938,0.0824,0.0772,0.0731,0.0579,0.0524,0.0445,0.033,0.0294,0.0273,0.0232,0.0256,0.0224,0.0237,0.0232,0.0211,0.0227,0.024,0.0064,0.0063,0.0062,0,0,0.1449,0.1361,0.1337,0.1257,0.1134,0.1039,0.1034,0.0887,0.0829,0.077,0.0655,0.0604,0.0487,0.041,0.0356,0.0429,0.0346,0.0409,0.0494,0.048,0.0493,0.0503,0.053,0.0541,0.0412,0.0413,0.0413,0,0.1555,0.1468,0.1336,0.129,0.1234,0.1093,0.1069,0.0998,0.0858,0.0823,0.0779,0.0628,0.0541,0.0485,0.0503,0.0463,0.0453,0.0426,0.0501,0.051,0.0518,0.0542,0.0553,0.0421,0.042,0.0419,0.0419,0,0.1604,0.1546,0.1542,0.1409,0.1352,0.1318,0.1182,0.114,0.1059,0.097,0.0912,0.0802,0.0704,0.0684,0.0605,0.0617,0.0595,0.0528,0.0452,0.0544,0.0564,0.0572,0.0434,0.043,0.0428,0.0426,0,0,0.1817,0.1609,0.1611,0.1548,0.1401,0.1354,0.1313,0.1216,0.1183,0.1091,0.1054,0.0957,0.0893,0.0832,0.0743,0.073,0.0796,0.0664,0.0659,0.0694,0.0802,0.0855,0.0868,0.0739,0.074,0.0741,0.0812,0,0.1899,0.1816,0.1696,0.1654,0.1598,0.1462,0.1426,0.1333,0.1247,0.1188,0.1093,0.1028,0.0949,0.091,0.0892,0.0792,0.0816,0.0785,0.0704,0.0703,0.0739,0.0878,0.0933,0.1006,0.0819,0.082,0.0821,0,0.1984,0.1898,0.1851,0.1707,0.1679,0.1649,0.155,0.1495,0.1386,0.1324,0.1255,0.1158,0.1107,0.1038,0.0967,0.0949,0.0908,0.0854,0.0854,0.0843,0.0769,0.0873,0.1026,0.1038,0.0832,0.0831,0.083,0,0.2146,0.2018,0.1972,0.1923,0.1754,0.1736,0.1665,0.1553,0.1502,0.1415,0.1381,0.129,0.1241,0.1174,0.1055,0.1015,0.0997,0.0917,0.0946,0.0949,0.095,0.0952,0.1101,0.0922,0.0922,0.0921,0.0921,0,0.2251,0.2228,0.2042,0.2015,0.1984,0.1846,0.182,0.1736,0.1637,0.1592,0.1468,0.1428,0.1272,0.1214,0.112,0.1077,0.1055,0.1005,0.098,0.1017,0.1024,0.099,0.0982,0.0924,0.0924,0.0923,0.0923,0,0.2427,0.2302,0.2243,0.2087,0.2047,0.2032,0.1898,0.1867,0.1773,0.1717,0.1696,0.1549,0.1474,0.1348,0.1236,0.1173,0.1148,0.1106,0.1185,0.1171,0.1207,0.1206,0.1341,0.1351,0.1165,0.1167,0.1169,0,0.2504,0.2482,0.2323,0.2283,0.2216,0.2153,0.21,0.1962,0.1912,0.1785,0.1769,0.1684,0.1609,0.1495,0.1379,0.1293,0.1249,0.1302,0.1235,0.1272,0.1251,0.1255,0.1252,0.1318,0.1321,0.1323,0.1325,0,0.2654,0.2592,0.252,0.2425,0.2365,0.2285,0.2198,0.2172,0.2015,0.1965,0.1886,0.1828,0.1713,0.163,0.1528,0.1454,0.1365,0.1346,0.1348,0.1387,0.1434,0.141,0.1229,0.1345,0.1343,0.1341,0.134,0.1339,0.2783,0.2757,0.2641,0.2564,0.2484,0.2406,0.2368,0.2269,0.22,0.2095,0.2018,0.1945,0.1834,0.1687,0.1618,0.1559,0.1518,0.1522,0.1523,0.1526,0.1541,0.1442,0.154,0.1539,0.1538,0.1538,0.1537,0,0.2927,0.2845,0.2776,0.2658,0.2598,0.2515,0.2415,0.237,0.2307,0.2211,0.2139,0.2048,0.1967,0.1844,0.1753,0.1729,0.1686,0.171,0.1712,0.1696,0.1582,0.159,0.1747,0.1747,0.1747,0.1747,0.1747,0.1747,0.2996,0.2948,0.2873,0.2784,0.2702,0.2628,0.2578,0.2505,0.2428,0.2332,0.2263,0.2182,0.2075,0.1975,0.1897,0.1863,0.1836,0.1874,0.1828,0.1724,0.1704,0.1686,0.1693,0.1869,0.1869,0.1947,0.1948,0.1948]},{"header":{"parameterUnit":"m.s-1","parameterCategory":1,"la1":30.2991,"la2":30.254,"lo1":-89.0895,"lo2":-89.0444,"dy":0.0017,"dx":0.0017,"nx":28,"ny":28,"refTime":"2024-07-25T03:00:00:Z","depth":0,"parameterNumber":3,"parameterNumberName":"V-component_of_WINDS"},"data":[0,0,0,0,0,0,0,0,0,0,0,0,0,0,0,0,0,0,0,0,0,0,0,0,0,0,0,0,0,0,0,0,0,0,0,0,0,0,0,0,0,0,0,0,0,0,0,0,0,0,0,0,0,0,0,0,0,0,2.0886,2.0887,0,2.1012,2.1014,2.1015,2.1038,2.1037,2.1036,2.1035,2.1151,2.1154,2.1158,0,0,0,0,0,0,0,0,0,0,0,0,0,2.0649,2.0653,2.0886,2.0887,2.0889,2.1012,2.1014,2.1016,2.1038,2.1037,2.1035,2.1034,2.1149,2.1154,2.1159,0,0,0,0,0,0,0,0,0,0,0,0,0,2.0761,2.0655,2.0885,2.0915,2.0919,2.1012,2.1014,2.1016,2.1038,2.1037,2.1035,2.1034,2.1148,2.1153,2.1159,2.1227,0,0,2.1178,2.118,0,0,0,0,0,0,0,0,2.0754,2.0769,2.0909,2.0913,2.0918,2.1008,2.0973,2.1086,2.1039,2.0993,2.1035,2.1033,2.1103,2.1113,2.114,2.1232,2.1237,2.1178,2.1182,2.1185,2.1186,0,0,0,0,0,0,0,2.0747,2.0764,2.0935,2.0911,2.0917,2.0918,2.0932,2.0994,2.1054,2.0996,2.0999,2.1014,2.1105,2.1134,2.1142,2.1239,2.1178,2.1184,2.1187,2.119,2.1392,2.1393,0,0,0,0,0,0,2.0736,2.0757,2.0931,2.0939,2.0831,2.0923,2.0939,2.098,2.1054,2.1064,2.1015,2.1015,2.1124,2.1135,2.1147,2.1231,2.1185,2.119,2.1194,2.139,2.1392,2.1394,0,0,0,0,0,0,2.073,2.0751,2.0926,2.0849,2.0872,2.0929,2.0975,2.0984,2.1012,2.1068,2.1078,2.1034,2.1123,2.1138,2.1208,2.1235,2.1193,2.1198,2.1388,2.1391,2.1393,2.1399,0,0,0,0,0,0,2.0724,2.0749,2.0779,2.085,2.0876,2.0989,2.0977,2.0987,2.1024,2.1025,2.1089,2.1097,2.1123,2.1198,2.1213,2.1242,2.1203,2.1386,2.1389,2.1392,2.1396,2.1401,2.1405,0,0,0,0,0,2.0715,2.0772,2.078,2.0801,2.0915,2.0991,2.1005,2.1038,2.1027,2.1055,2.109,2.1095,2.1229,2.1205,2.1222,2.1254,2.1384,2.1388,2.1392,2.1394,2.14,2.1405,0,0,0,0,0,0,2.0698,2.0782,2.0792,2.0875,2.0926,2.0995,2.1032,2.1043,2.1095,2.1093,2.1127,2.1141,2.1208,2.1237,2.1209,2.1322,2.1305,2.1313,2.1301,2.1307,2.1312,2.1303,2.1208,0,0,0,0,0,2.0705,2.0764,2.0833,2.0899,2.0925,2.0974,2.1008,2.1029,2.1082,2.1102,2.1143,2.119,2.1242,2.1276,2.1328,2.14,2.1413,2.143,2.1434,2.1438,2.1444,2.1483,2.1491,2.1407,2.1407,2.1407,0,0,2.0717,2.0771,2.0805,2.0897,2.0939,2.0996,2.0992,2.1052,2.1093,2.111,2.118,2.121,2.1265,2.1336,2.1369,2.1362,2.147,2.1443,2.1445,2.1449,2.1488,2.1496,2.1503,2.141,2.1409,2.1409,0,0,2.077,2.0817,2.0879,2.0922,2.0988,2.102,2.1034,2.1102,2.1125,2.1196,2.121,2.1256,2.1346,2.1385,2.1416,2.1483,2.1489,2.1498,2.1522,2.156,2.1566,2.1572,2.1595,2.1604,2.1504,2.1504,2.1504,0,2.0776,2.0868,2.0906,2.0968,2.1006,2.1028,2.1088,2.1126,2.1203,2.1227,2.1219,2.1333,2.1371,2.1451,2.1468,2.1493,2.1507,2.1491,2.1563,2.1569,2.1575,2.1598,2.1607,2.1504,2.1504,2.1504,2.1504,0,2.0872,2.0935,2.0975,2.1055,2.1097,2.1156,2.12,2.1237,2.1254,2.1286,2.1356,2.1403,2.1464,2.1484,2.1499,2.1566,2.156,2.1557,2.1541,2.1584,2.1605,2.1614,2.1506,2.1505,2.1505,2.1505,0,0,2.0918,2.102,2.1034,2.107,2.1144,2.1191,2.1249,2.1314,2.1345,2.1396,2.1445,2.1521,2.1519,2.1554,2.1573,2.1606,2.1656,2.1599,2.1601,2.1608,2.1731,2.1733,2.1743,2.166,2.1662,2.1663,2.1726,0,2.098,2.1092,2.1128,2.1219,2.1276,2.1297,2.1348,2.1396,2.1426,2.1475,2.1506,2.156,2.1554,2.1575,2.1609,2.1643,2.1681,2.1638,2.1702,2.1704,2.1689,2.1754,2.1757,2.1815,2.1735,2.1737,2.1738,0,2.1068,2.1127,2.1225,2.1292,2.1317,2.1363,2.1425,2.1472,2.1526,2.1545,2.1585,2.1602,2.1659,2.164,2.1718,2.1688,2.1716,2.1736,2.1739,2.1746,2.1724,2.1763,2.1834,2.1842,2.1751,2.175,2.1749,0,2.1092,2.1194,2.1267,2.1297,2.1377,2.1409,2.1442,2.1495,2.1531,2.1583,2.1606,2.1662,2.1693,2.1734,2.1763,2.1747,2.1838,2.1821,2.1853,2.1852,2.1872,2.187,2.1948,2.1889,2.1889,2.1889,2.1889,0,2.1158,2.1217,2.1279,2.1324,2.1389,2.1427,2.1489,2.1523,2.157,2.1618,2.1637,2.168,2.1717,2.1764,2.1787,2.1847,2.186,2.1875,2.1881,2.1874,2.1872,2.1893,2.1889,2.1891,2.1891,2.189,2.189,0,2.1196,2.1241,2.1321,2.1391,2.141,2.1455,2.1513,2.1554,2.1586,2.1646,2.1661,2.1709,2.1765,2.18,2.1869,2.1884,2.1951,2.1954,2.1935,2.1937,2.1967,2.1964,2.2061,2.2075,2.2007,2.2007,2.2008,0,2.1236,2.1283,2.1359,2.1395,2.1431,2.1488,2.1527,2.1564,2.1602,2.1667,2.1699,2.1758,2.1808,2.1895,2.1933,2.1986,2.1991,2.2021,2.1999,2.199,2.1991,2.1988,2.1992,2.2025,2.2025,2.2026,2.2026,0,2.1301,2.1321,2.1379,2.1444,2.149,2.1542,2.1593,2.162,2.1665,2.1706,2.1767,2.1805,2.1879,2.1935,2.1992,2.2021,2.203,2.2033,2.2043,2.2037,2.2024,2.2031,2.1945,2.2031,2.203,2.203,2.203,2.2029,2.1341,2.1384,2.1445,2.1508,2.1551,2.1598,2.1641,2.1679,2.1732,2.1799,2.1816,2.1879,2.1928,2.2006,2.2036,2.2083,2.2078,2.2092,2.2096,2.2099,2.21,2.2017,2.2093,2.2093,2.2093,2.2093,2.2093,0,2.1407,2.1448,2.1506,2.1579,2.1628,2.1637,2.1693,2.1732,2.1789,2.1837,2.1886,2.1954,2.2009,2.2052,2.2107,2.2136,2.2141,2.2149,2.2147,2.2154,2.2102,2.2088,2.2144,2.2144,2.2144,2.2144,2.2144,2.2144,2.1448,2.1521,2.1548,2.164,2.1679,2.1745,2.1777,2.1819,2.1858,2.1935,2.1983,2.2012,2.2056,2.2115,2.2165,2.2175,2.2194,2.2201,2.2212,2.2163,2.2157,2.2152,2.2139,2.2205,2.2205,2.2261,2.2261,2.2261]}]]